TAF and METAR

Decoding for American and Canadian METARs and TAFs is not fully implemented.

Could not understand the following METAR

KAIK 311215Z AUTO 04010KT 10SM CLR 23/16 A3005 RMK AO2 T02250162
No TAF available for Aiken Municipal Airport
Aiken Municipal Airport in United States of America at 161m

Latest 5 airports